Location: Unspecified
(40.9447°N, 78.9903°W)
Time: 09:50:00
(UTC-04:00)

Resurs 1-4 Rocket - Pass Details

Date: 29 July 2021
Orbit: 799 x 814 km, 98.6° (Epoch: 27 September)

Event Time Altitude Azimuth Distance (km) Brightness Sun altitude
Rises 04:37:20 0° 352° (N) 3,341 5.8 -15.2°
Reaches altitude 10° 04:41:30 10° 320° (NW) 2,400 4.6 -14.6°
Maximum altitude 04:43:04 11° 303° (WNW) 2,303 4.3 -14.4°
Drops below altitude 10° 04:44:38 10° 285° (WNW) 2,392 4.2 -14.2°
Enters shadow 04:45:32 - 276° (W) 2,523 4.3 -14.1°
